When you browse on this site, cookies collect data to enhance your experience and personalize the content and advertising you see.
Visit our Privacy Policy to learn more. By continuing to use the site, you agree to this use of cookies and data.
  • In Hungary
  • List of Countries
  • For 7 days
  • Water Temperature
  • Satellite Maps
  • Weather Map
  • News
  • Weather Widgets
  • user-avatar
    Login

    Hourly Weather Zwolle

    Today, 24 January, Thursday

    Time Temperature Precipitation Wind Pressure Humidity
    00:00 -4°C° 0 mm 1 mps 755 mmHg 88%
    01:00 -4°C° 0 mm 1 mps 755 mmHg 87%
    02:00 -4°C° 0 mm 1 mps 756 mmHg 86%
    03:00 -4°C° 0 mm 1 mps 756 mmHg 86%
    04:00 -4°C° 0 mm 1 mps 756 mmHg 85%
    05:00 -4°C° 0 mm 1 mps 756 mmHg 84%
    06:00 -6°C° 0 mm 1 mps 757 mmHg 83%
    07:00 -4°C° 0 mm 1 mps 757 mmHg 81%
    08:00 -4°C° 0 mm 1 mps 757 mmHg 79%
    09:00 -4°C° 0 mm 1 mps 757 mmHg 77%
    10:00 -4°C° 0 mm 0 mps 758 mmHg 73%
    11:00 -3°C° 0 mm 0 mps 758 mmHg 70%
    12:00 -2°C° 0 mm 0 mps 758 mmHg 66%
    13:00 -2°C° 0 mm 0 mps 758 mmHg 68%
    14:00 -2°C° 0 mm 0 mps 758 mmHg 71%
    15:00 -2°C° 0 mm 0 mps 758 mmHg 74%
    16:00 -3°C° 0 mm 0 mps 759 mmHg 76%
    17:00 -3°C° 0 mm 1 mps 759 mmHg 79%
    18:00 -3°C° 0 mm 1 mps 759 mmHg 81%
    19:00 -3°C° 0 mm 1 mps 760 mmHg 82%
    20:00 -4°C° 0 mm 1 mps 760 mmHg 82%
    21:00 -4°C° 0 mm 1 mps 760 mmHg 82%
    22:00 -3°C° 0 mm 1 mps 761 mmHg 82%
    23:00 -3°C° 0 mm 1 mps 761 mmHg 81%

    Tomorrow, 25 January, Friday

    Time Temperature Precipitation Wind Pressure Humidity
    00:00 -4°C° 0 mm 0 mps 761 mmHg 81%
    01:00 -3°C° 0 mm 1 mps 761 mmHg 81%
    02:00 -3°C° 0 mm 1 mps 761 mmHg 82%
    03:00 -3°C° 0 mm 1 mps 761 mmHg 82%
    04:00 -3°C° 0 mm 1 mps 761 mmHg 84%
    05:00 -3°C° 0 mm 1 mps 761 mmHg 86%
    06:00 -3°C° 0 mm 1 mps 761 mmHg 88%
    07:00 -5°C° 0 mm 2 mps 761 mmHg 90%
    08:00 -4°C° 0 mm 2 mps 761 mmHg 91%
    09:00 -5°C° 0 mm 3 mps 761 mmHg 92%
    10:00 -2°C° 0 mm 3 mps 761 mmHg 91%
    11:00 -2°C° 0 mm 4 mps 761 mmHg 90%
    12:00 -1°C° 0 mm 4 mps 761 mmHg 89%
    13:00 -1°C° 0.1 mm 5 mps 760 mmHg 90%
    14:00 -1°C° 0.1 mm 5 mps 760 mmHg 90%
    15:00 -1°C° 0.1 mm 5 mps 759 mmHg 91%
    16:00 -1°C° 0.3 mm 6 mps 759 mmHg 92%
    17:00 -1°C° 0.3 mm 6 mps 759 mmHg 92%
    18:00 -1°C° 0.3 mm 7 mps 758 mmHg 93%
    19:00 -1°C° 0.3 mm 6 mps 758 mmHg 94%
    20:00 +1°C° 0.3 mm 6 mps 758 mmHg 96%
    21:00 +2°C° 0.3 mm 5 mps 758 mmHg 97%
    22:00 +2°C° 0.1 mm 5 mps 758 mmHg 97%
    23:00 +3°C° 0.1 mm 5 mps 758 mmHg 97%

    Day after tomorrow, 26 January, Saturday

    Time Temperature Precipitation Wind Pressure Humidity
    00:00 +3°C° 0.1 mm 5 mps 757 mmHg 97%
    01:00 +3°C° 0 mm 6 mps 757 mmHg 97%
    02:00 +4°C° 0 mm 6 mps 757 mmHg 96%
    03:00 +4°C° 0 mm 7 mps 756 mmHg 96%
    04:00 +4°C° 0.5 mm 7 mps 756 mmHg 95%
    05:00 +4°C° 0.5 mm 7 mps 756 mmHg 95%
    06:00 +4°C° 0.5 mm 7 mps 755 mmHg 94%
    07:00 +4°C° 0.5 mm 7 mps 755 mmHg 94%
    08:00 +4°C° 0.5 mm 7 mps 755 mmHg 94%
    09:00 +4°C° 0.5 mm 6 mps 756 mmHg 94%
    10:00 +5°C° 0 mm 6 mps 755 mmHg 94%
    11:00 +5°C° 0 mm 6 mps 755 mmHg 93%
    12:00 +6°C° 0 mm 5 mps 755 mmHg 93%
    13:00 +6°C° 0 mm 5 mps 755 mmHg 93%
    14:00 +6°C° 0 mm 5 mps 754 mmHg 93%
    15:00 +5°C° 0 mm 5 mps 754 mmHg 92%
    16:00 +5°C° 0 mm 5 mps 753 mmHg 93%
    17:00 +5°C° 0 mm 5 mps 753 mmHg 93%
    18:00 +3°C° 0 mm 5 mps 752 mmHg 93%
    19:00 +4°C° 0.1 mm 6 mps 751 mmHg 93%
    20:00 +4°C° 0.1 mm 6 mps 750 mmHg 92%
    21:00 +4°C° 0.1 mm 7 mps 750 mmHg 92%
    22:00 +4°C° 0.2 mm 7 mps 749 mmHg 92%
    23:00 +4°C° 0.2 mm 7 mps 748 mmHg 92%

    27 January, Sunday

    Time Temperature Precipitation Wind Pressure Humidity
    00:00 +4°C° 0.2 mm 7 mps 747 mmHg 92%
    01:00 +4°C° 1.3 mm 7 mps 746 mmHg 91%
    02:00 +3°C° 1.3 mm 7 mps 745 mmHg 91%
    03:00 +3°C° 1.3 mm 7 mps 744 mmHg 90%
    04:00 +3°C° 0.1 mm 7 mps 743 mmHg 91%
    05:00 +3°C° 0.1 mm 6 mps 742 mmHg 92%
    06:00 +3°C° 0.1 mm 5 mps 741 mmHg 93%
    07:00 +3°C° 0.1 mm 5 mps 741 mmHg 92%
    08:00 +3°C° 0.1 mm 5 mps 740 mmHg 91%
    09:00 +5°C° 0.1 mm 5 mps 740 mmHg 90%
    10:00 +4°C° 0.3 mm 6 mps 739 mmHg 88%
    11:00 +4°C° 0.3 mm 6 mps 739 mmHg 87%
    12:00 +4°C° 0.3 mm 6 mps 738 mmHg 85%
    13:00 +5°C° 0.2 mm 5 mps 738 mmHg 85%
    14:00 +5°C° 0.2 mm 4 mps 738 mmHg 86%
    15:00 +5°C° 0.2 mm 4 mps 737 mmHg 86%
    16:00 +4°C° 0.1 mm 3 mps 737 mmHg 88%
    17:00 +4°C° 0.1 mm 3 mps 737 mmHg 91%
    18:00 +5°C° 0.1 mm 2 mps 737 mmHg 93%
    19:00 +4°C° 0.1 mm 2 mps 737 mmHg 94%
    20:00 +5°C° 0.1 mm 1 mps 738 mmHg 95%
    21:00 +4°C° 0.1 mm 1 mps 738 mmHg 96%
    22:00 +4°C° 0.1 mm 1 mps 738 mmHg 96%
    23:00 +3°C° 0.1 mm 2 mps 738 mmHg 96%

    28 January, Monday

    Time Temperature Precipitation Wind Pressure Humidity
    00:00 +3°C° 0.1 mm 2 mps 738 mmHg 97%
    01:00 +3°C° 0 mm 2 mps 739 mmHg 97%
    02:00 +1°C° 0 mm 3 mps 739 mmHg 97%
    03:00 +1°C° 0 mm 3 mps 739 mmHg 97%
    04:00 +1°C° 0.1 mm 3 mps 740 mmHg 96%
    05:00 +1°C° 0.1 mm 4 mps 741 mmHg 96%
    06:00 +1°C° 0.1 mm 5 mps 741 mmHg 95%
    07:00 +1°C° 0.5 mm 6 mps 743 mmHg 90%
    08:00 0°C° 0.5 mm 7 mps 744 mmHg 85%
    09:00 0°C° 0.5 mm 9 mps 745 mmHg 80%
    10:00 +1°C° 0 mm 8 mps 746 mmHg 75%
    11:00 +1°C° 0 mm 8 mps 747 mmHg 71%
    12:00 +2°C° 0 mm 8 mps 748 mmHg 67%
    13:00 +2°C° 0.1 mm 7 mps 748 mmHg 67%
    14:00 +2°C° 0.1 mm 7 mps 749 mmHg 68%
    15:00 +2°C° 0.1 mm 6 mps 750 mmHg 68%
    16:00 +1°C° 0 mm 6 mps 750 mmHg 71%
    17:00 0°C° 0 mm 5 mps 751 mmHg 74%
    18:00 0°C° 0 mm 5 mps 751 mmHg 77%
    19:00 -1°C° 0 mm 4 mps 752 mmHg 79%
    20:00 -1°C° 0 mm 4 mps 752 mmHg 81%
    21:00 -1°C° 0 mm 4 mps 753 mmHg 83%
    22:00 -1°C° 0.1 mm 4 mps 753 mmHg 82%
    23:00 -1°C° 0.1 mm 4 mps 753 mmHg 82%

    29 January, Tuesday

    Time Temperature Precipitation Wind Pressure Humidity
    00:00 0°C° 0.1 mm 4 mps 753 mmHg 81%
    01:00 -1°C° 0.1 mm 4 mps 753 mmHg 82%
    02:00 -1°C° 0.1 mm 4 mps 753 mmHg 83%
    03:00 -1°C° 0.1 mm 4 mps 752 mmHg 84%
    04:00 -1°C° 0.1 mm 5 mps 752 mmHg 85%
    05:00 -1°C° 0.1 mm 5 mps 752 mmHg 86%
    06:00 -2°C° 0.1 mm 6 mps 751 mmHg 86%
    07:00 -2°C° 0.1 mm 6 mps 751 mmHg 85%
    08:00 0°C° 0.1 mm 5 mps 751 mmHg 84%
    09:00 +1°C° 0.1 mm 5 mps 751 mmHg 83%
    10:00 +1°C° 0.3 mm 5 mps 751 mmHg 81%
    11:00 +1°C° 0.3 mm 5 mps 751 mmHg 79%
    12:00 +2°C° 0.3 mm 6 mps 751 mmHg 77%
    13:00 +1°C° 0.2 mm 5 mps 751 mmHg 77%
    14:00 +1°C° 0.2 mm 5 mps 750 mmHg 77%
    15:00 +1°C° 0.2 mm 5 mps 750 mmHg 77%
    16:00 0°C° 0.1 mm 5 mps 750 mmHg 79%
    17:00 0°C° 0.1 mm 4 mps 750 mmHg 81%
    18:00 0°C° 0.1 mm 4 mps 749 mmHg 83%
    19:00 -1°C° 0.2 mm 4 mps 749 mmHg 84%
    20:00 -1°C° 0.2 mm 5 mps 749 mmHg 85%
    21:00 -1°C° 0.2 mm 5 mps 748 mmHg 86%
    22:00 -1°C° 0.3 mm 5 mps 748 mmHg 86%
    23:00 -1°C° 0.3 mm 5 mps 748 mmHg 86%
    Show more